Time,TemperatureF,DewpointF,PressureIn,WindDirection,WindDirectionDegrees,WindSpeedMPH,WindSpeedGustMPH,Humidity,HourlyPrecipIn,Conditions,Clouds,dailyrainin,SoftwareType,DateUTC
2013-05-03 00:03:00,68.0,65.0,29.88,SSE,151,3.0,5.0,90,-99.99,,,-99.99,,2013-05-03 04:03:00,
2013-05-03 00:13:00,67.0,64.0,29.87,SSE,153,3.0,5.0,90,-99.99,,,-99.99,,2013-05-03 04:13:00,
2013-05-03 00:23:00,67.0,64.0,29.87,SSE,153,3.0,5.0,90,-99.99,,,-99.99,,2013-05-03 04:23:00,
2013-05-03 00:32:00,67.0,64.0,29.87,SSE,150,3.0,5.0,90,-99.99,,,-99.99,,2013-05-03 04:32:00,
2013-05-03 00:43:00,67.0,64.0,29.87,SSE,150,3.0,5.0,90,-99.99,,,-99.99,,2013-05-03 04:43:00,
2013-05-03 00:53:00,67.0,64.0,29.87,SE,136,3.0,4.0,90,-99.99,,,-99.99,,2013-05-03 04:53:00,
2013-05-03 01:03:00,67.0,64.0,29.87,SE,136,3.0,4.0,90,-99.99,,,-99.99,,2013-05-03 05:03:00,
2013-05-03 01:12:00,67.0,64.0,29.86,SE,138,3.0,5.0,90,-99.99,,,-99.99,,2013-05-03 05:12:00,
2013-05-03 01:22:00,67.0,64.0,29.86,SE,138,3.0,5.0,90,-99.99,,,-99.99,,2013-05-03 05:22:00,
2013-05-03 01:32:00,67.0,64.0,29.86,SE,138,3.0,5.0,90,-99.99,,,-99.99,,2013-05-03 05:32:00,
2013-05-03 01:42:00,67.0,64.0,29.86,SSE,151,3.0,5.0,90,-99.99,,,-99.99,,2013-05-03 05:42:00,
2013-05-03 01:52:00,67.0,64.0,29.85,South,177,3.0,5.0,90,-99.99,,,-99.99,,2013-05-03 05:52:00,
2013-05-03 02:02:00,67.0,64.0,29.85,South,182,3.0,5.0,91,-99.99,,,-99.99,,2013-05-03 06:02:00,
2013-05-03 02:12:00,67.0,64.0,29.85,South,182,3.0,5.0,91,-99.99,,,-99.99,,2013-05-03 06:12:00,
2013-05-03 02:22:00,67.0,65.0,29.85,South,179,4.0,5.0,91,-99.99,,,-99.99,,2013-05-03 06:22:00,
2013-05-03 02:32:00,67.0,65.0,29.85,South,179,4.0,5.0,91,-99.99,,,-99.99,,2013-05-03 06:32:00,
2013-05-03 02:42:00,68.0,65.0,29.83,SSW,196,2.0,3.0,90,-99.99,,,-99.99,,2013-05-03 06:42:00,
2013-05-03 02:52:00,68.0,65.0,29.82,SW,227,1.0,2.0,90,-99.99,,,-99.99,,2013-05-03 06:52:00,
2013-05-03 03:02:00,68.0,65.0,29.82,SW,227,1.0,2.0,90,-99.99,,,-99.99,,2013-05-03 07:02:00,
2013-05-03 03:11:00,68.0,65.0,29.81,SSW,193,1.0,2.0,90,-99.99,,,-99.99,,2013-05-03 07:11:00,
2013-05-03 03:22:00,68.0,65.0,29.81,SSW,193,1.0,2.0,90,-99.99,,,-99.99,,2013-05-03 07:22:00,
2013-05-03 03:32:00,67.0,64.0,29.81,SE,135,2.0,3.0,90,-99.99,,,-99.99,,2013-05-03 07:32:00,
2013-05-03 03:42:00,67.0,64.0,29.81,SE,135,2.0,3.0,90,-99.99,,,-99.99,,2013-05-03 07:42:00,
2013-05-03 03:52:00,66.0,63.0,29.81,ESE,115,2.0,3.0,91,-99.99,,,-99.99,,2013-05-03 07:52:00,
2013-05-03 04:02:00,65.0,63.0,29.81,South,181,1.0,2.0,91,-99.99,,,-99.99,,2013-05-03 08:02:00,
2013-05-03 04:12:00,65.0,63.0,29.81,South,181,1.0,2.0,91,-99.99,,,-99.99,,2013-05-03 08:12:00,
2013-05-03 04:21:00,65.0,63.0,29.81,South,181,1.0,2.0,91,-99.99,,,-99.99,,2013-05-03 08:21:00,
2013-05-03 04:32:00,65.0,62.0,29.80,ENE,64,2.0,2.0,91,-99.99,,,-99.99,,2013-05-03 08:32:00,
2013-05-03 04:42:00,64.0,62.0,29.80,NE,34,1.0,2.0,92,-99.99,,,-99.99,,2013-05-03 08:42:00,
2013-05-03 04:53:00,63.0,61.0,29.79,NW,312,1.0,2.0,92,-99.99,,,-99.99,,2013-05-03 08:53:00,
2013-05-03 05:01:00,63.0,61.0,29.79,NW,312,1.0,2.0,92,-99.99,,,-99.99,,2013-05-03 09:01:00,
2013-05-03 05:12:00,63.0,61.0,29.80,SSE,157,3.0,4.0,92,-99.99,,,-99.99,,2013-05-03 09:12:00,
2013-05-03 05:21:00,63.0,61.0,29.80,SSE,157,3.0,4.0,92,-99.99,,,-99.99,,2013-05-03 09:21:00,
2013-05-03 05:32:00,63.0,60.0,29.80,NE,36,2.0,3.0,92,-99.99,,,-99.99,,2013-05-03 09:32:00,
2013-05-03 05:42:00,63.0,61.0,29.80,NNE,31,2.0,3.0,93,-99.99,,,-99.99,,2013-05-03 09:42:00,
2013-05-03 05:53:00,63.0,61.0,29.80,NNE,31,2.0,3.0,93,-99.99,,,-99.99,,2013-05-03 09:53:00,
2013-05-03 06:03:00,63.0,61.0,29.80,WNW,302,2.0,3.0,93,-99.99,,,-99.99,,2013-05-03 10:03:00,
2013-05-03 06:13:00,63.0,61.0,29.80,WNW,302,2.0,3.0,93,-99.99,,,-99.99,,2013-05-03 10:13:00,
2013-05-03 06:22:00,63.0,61.0,29.81,ESE,117,3.0,3.0,93,-99.99,,,-99.99,,2013-05-03 10:22:00,
2013-05-03 06:32:00,63.0,61.0,29.81,NNE,21,3.0,4.0,93,-99.99,,,-99.99,,2013-05-03 10:32:00,
2013-05-03 06:42:00,63.0,61.0,29.81,NNE,21,3.0,4.0,93,-99.99,,,-99.99,,2013-05-03 10:42:00,
2013-05-03 06:52:00,63.0,61.0,29.81,NE,48,2.0,3.0,93,-99.99,,,-99.99,,2013-05-03 10:52:00,
2013-05-03 07:02:00,63.0,61.0,29.81,WNW,282,3.0,4.0,93,-99.99,,,-99.99,,2013-05-03 11:02:00,
2013-05-03 07:11:00,63.0,61.0,29.81,WNW,282,3.0,4.0,93,-99.99,,,-99.99,,2013-05-03 11:11:00,
2013-05-03 07:22:00,63.0,61.0,29.81,ESE,117,2.0,4.0,93,-99.99,,,-99.99,,2013-05-03 11:22:00,
2013-05-03 07:32:00,63.0,61.0,29.81,ESE,117,2.0,4.0,93,-99.99,,,-99.99,,2013-05-03 11:32:00,
2013-05-03 07:42:00,63.0,61.0,29.81,NNW,336,1.0,2.0,93,-99.99,,,-99.99,,2013-05-03 11:42:00,
2013-05-03 07:52:00,63.0,61.0,29.81,West,263,2.0,3.0,93,-99.99,,,-99.99,,2013-05-03 11:52:00,
2013-05-03 08:02:00,64.0,62.0,29.80,NNW,348,3.0,4.0,93,-99.99,,,-99.99,,2013-05-03 12:02:00,
2013-05-03 08:12:00,64.0,62.0,29.80,NNW,348,3.0,4.0,93,-99.99,,,-99.99,,2013-05-03 12:12:00,
2013-05-03 08:22:00,64.0,62.0,29.81,ESE,121,2.0,13.0,93,-99.99,,,-99.99,,2013-05-03 12:22:00,
2013-05-03 08:32:00,66.0,64.0,29.81,ENE,65,3.0,10.0,93,-99.99,,,-99.99,,2013-05-03 12:32:00,
2013-05-03 08:42:00,66.0,64.0,29.81,ENE,65,3.0,10.0,93,-99.99,,,-99.99,,2013-05-03 12:42:00,
2013-05-03 08:52:00,68.0,66.0,29.81,NE,45,4.0,6.0,93,-99.99,,,-99.99,,2013-05-03 12:52:00,
2013-05-03 09:01:00,70.0,68.0,29.81,NE,36,5.0,8.0,93,-99.99,,,-99.99,,2013-05-03 13:01:00,
2013-05-03 09:11:00,70.0,68.0,29.81,NE,36,5.0,8.0,93,-99.99,,,-99.99,,2013-05-03 13:11:00,
2013-05-03 09:22:00,71.0,68.0,29.82,NNE,32,7.0,10.0,92,-99.99,,,-99.99,,2013-05-03 13:22:00,
2013-05-03 09:32:00,71.0,68.0,29.82,ESE,118,7.0,9.0,89,-99.99,,,-99.99,,2013-05-03 13:32:00,
2013-05-03 09:42:00,71.0,68.0,29.82,ESE,118,7.0,9.0,89,-99.99,,,-99.99,,2013-05-03 13:42:00,
2013-05-03 09:52:00,72.0,67.0,29.82,WSW,244,7.0,10.0,84,-99.99,,,-99.99,,2013-05-03 13:52:00,
2013-05-03 10:02:00,72.0,67.0,29.82,WSW,244,7.0,10.0,84,-99.99,,,-99.99,,2013-05-03 14:02:00,
2013-05-03 10:11:00,73.0,68.0,29.82,SE,132,8.0,16.0,83,-99.99,,,-99.99,,2013-05-03 14:11:00,
2013-05-03 10:22:00,73.0,68.0,29.82,SE,132,8.0,16.0,83,-99.99,,,-99.99,,2013-05-03 14:22:00,
2013-05-03 10:32:00,73.0,68.0,29.82,SE,132,8.0,16.0,83,-99.99,,,-99.99,,2013-05-03 14:32:00,
2013-05-03 10:42:00,74.0,67.0,29.82,West,263,7.0,14.0,79,-99.99,,,-99.99,,2013-05-03 14:42:00,
2013-05-03 10:52:00,74.0,67.0,29.82,SE,138,7.0,11.0,79,-99.99,,,-99.99,,2013-05-03 14:52:00,
2013-05-03 11:01:00,75.0,67.0,29.82,NE,52,9.0,14.0,78,-99.99,,,-99.99,,2013-05-03 15:01:00,
2013-05-03 11:11:00,75.0,67.0,29.82,SE,136,7.0,12.0,76,-99.99,,,-99.99,,2013-05-03 15:11:00,
2013-05-03 11:22:00,75.0,67.0,29.82,SE,136,7.0,12.0,76,-99.99,,,-99.99,,2013-05-03 15:22:00,
2013-05-03 11:32:00,76.0,67.0,29.82,SW,233,7.0,11.0,72,-99.99,,,-99.99,,2013-05-03 15:32:00,
2013-05-03 11:43:00,76.0,67.0,29.82,WSW,252,6.0,8.0,72,-99.99,,,-99.99,,2013-05-03 15:43:00,
2013-05-03 11:53:00,76.0,67.0,29.82,WSW,252,6.0,8.0,72,-99.99,,,-99.99,,2013-05-03 15:53:00,
2013-05-03 12:03:00,77.0,67.0,29.82,SSW,210,5.0,11.0,69,-99.99,,,-99.99,,2013-05-03 16:03:00,
2013-05-03 12:13:00,77.0,67.0,29.82,SSW,210,5.0,11.0,69,-99.99,,,-99.99,,2013-05-03 16:13:00,
2013-05-03 12:23:00,77.0,67.0,29.82,NW,310,5.0,10.0,70,-99.99,,,-99.99,,2013-05-03 16:23:00,
2013-05-03 12:33:00,78.0,68.0,29.81,WSW,256,6.0,11.0,68,-99.99,,,-99.99,,2013-05-03 16:33:00,
2013-05-03 12:42:00,78.0,68.0,29.81,WSW,256,6.0,11.0,68,-99.99,,,-99.99,,2013-05-03 16:42:00,
2013-05-03 12:52:00,76.0,67.0,29.81,WNW,300,7.0,11.0,71,-99.99,,,-99.99,,2013-05-03 16:52:00,
2013-05-03 13:02:00,78.0,66.0,29.80,WNW,294,7.0,14.0,65,-99.99,,,-99.99,,2013-05-03 17:02:00,
2013-05-03 13:12:00,78.0,66.0,29.80,WNW,294,7.0,14.0,65,-99.99,,,-99.99,,2013-05-03 17:12:00,
2013-05-03 13:23:00,78.0,66.0,29.80,WNW,285,7.0,12.0,66,-99.99,,,-99.99,,2013-05-03 17:23:00,
2013-05-03 13:32:00,78.0,66.0,29.80,WNW,285,7.0,12.0,66,-99.99,,,-99.99,,2013-05-03 17:32:00,
2013-05-03 13:42:00,80.0,66.0,29.79,WNW,287,9.0,46.0,62,-99.99,,,-99.99,,2013-05-03 17:42:00,
2013-05-03 13:52:00,81.0,65.0,29.78,NW,308,7.0,13.0,58,-99.99,,,-99.99,,2013-05-03 17:52:00,
2013-05-03 14:01:00,82.0,64.0,29.78,WNW,288,10.0,16.0,54,-99.99,,,-99.99,,2013-05-03 18:01:00,
2013-05-03 14:12:00,82.0,64.0,29.78,WNW,288,10.0,16.0,54,-99.99,,,-99.99,,2013-05-03 18:12:00,
2013-05-03 14:22:00,82.0,65.0,29.77,NW,305,8.0,14.0,56,-99.99,,,-99.99,,2013-05-03 18:22:00,
2013-05-03 14:32:00,82.0,65.0,29.77,NW,305,8.0,14.0,56,-99.99,,,-99.99,,2013-05-03 18:32:00,
2013-05-03 14:42:00,81.0,65.0,29.77,NW,326,9.0,15.0,57,-99.99,,,-99.99,,2013-05-03 18:42:00,
2013-05-03 14:52:00,82.0,65.0,29.76,NW,321,8.0,13.0,56,-99.99,,,-99.99,,2013-05-03 18:52:00,
2013-05-03 15:01:00,81.0,65.0,29.76,NNW,327,10.0,14.0,58,-99.99,,,-99.99,,2013-05-03 19:01:00,
2013-05-03 15:11:00,81.0,65.0,29.76,NNW,327,10.0,14.0,58,-99.99,,,-99.99,,2013-05-03 19:11:00,
2013-05-03 15:21:00,82.0,64.0,29.75,NW,316,7.0,10.0,55,-99.99,,,-99.99,,2013-05-03 19:21:00,
2013-05-03 15:32:00,82.0,64.0,29.75,NW,316,7.0,10.0,55,-99.99,,,-99.99,,2013-05-03 19:32:00,
2013-05-03 15:42:00,81.0,65.0,29.75,WNW,293,6.0,9.0,57,-99.99,,,-99.99,,2013-05-03 19:42:00,
2013-05-03 15:52:00,81.0,64.0,29.74,WNW,284,8.0,13.0,55,-99.99,,,-99.99,,2013-05-03 19:52:00,
2013-05-03 16:02:00,80.0,67.0,29.74,SE,137,7.0,11.0,64,-99.99,,,-99.99,,2013-05-03 20:02:00,
2013-05-03 16:12:00,80.0,66.0,29.73,NNE,29,8.0,13.0,61,-99.99,,,-99.99,,2013-05-03 20:12:00,
2013-05-03 16:21:00,80.0,66.0,29.73,NNE,29,8.0,13.0,61,-99.99,,,-99.99,,2013-05-03 20:21:00,
2013-05-03 16:32:00,82.0,65.0,29.72,SW,228,11.0,17.0,55,-99.99,,,-99.99,,2013-05-03 20:32:00,
2013-05-03 16:42:00,79.0,66.0,29.72,SW,236,9.0,16.0,64,-99.99,,,-99.99,,2013-05-03 20:42:00,
2013-05-03 16:52:00,79.0,66.0,29.72,SW,236,9.0,16.0,64,-99.99,,,-99.99,,2013-05-03 20:52:00,
2013-05-03 17:02:00,78.0,66.0,29.72,SSE,165,8.0,13.0,65,-99.99,,,-99.99,,2013-05-03 21:02:00,
2013-05-03 17:11:00,78.0,65.0,29.72,NNW,331,11.0,16.0,63,-99.99,,,-99.99,,2013-05-03 21:11:00,
2013-05-03 17:22:00,78.0,65.0,29.72,NNW,331,11.0,16.0,63,-99.99,,,-99.99,,2013-05-03 21:22:00,
2013-05-03 17:33:00,75.0,66.0,29.72,NW,316,11.0,17.0,73,-99.99,,,-99.99,,2013-05-03 21:33:00,
2013-05-03 17:42:00,72.0,67.0,29.73,WNW,303,8.0,11.0,83,-99.99,,,-99.99,,2013-05-03 21:42:00,
2013-05-03 17:53:00,72.0,67.0,29.73,WNW,303,8.0,11.0,83,-99.99,,,-99.99,,2013-05-03 21:53:00,
2013-05-03 18:03:00,71.0,67.0,29.73,WNW,303,9.0,13.0,84,-99.99,,,-99.99,,2013-05-03 22:03:00,
2013-05-03 18:13:00,71.0,67.0,29.73,WNW,303,9.0,13.0,84,-99.99,,,-99.99,,2013-05-03 22:13:00,
2013-05-03 18:22:00,71.0,67.0,29.73,WNW,283,9.0,13.0,86,-99.99,,,-99.99,,2013-05-03 22:22:00,
2013-05-03 18:32:00,71.0,67.0,29.72,WNW,287,7.0,11.0,88,-99.99,,,-99.99,,2013-05-03 22:32:00,
2013-05-03 18:42:00,71.0,68.0,29.71,NW,312,7.0,16.0,89,-99.99,,,-99.99,,2013-05-03 22:42:00,
2013-05-03 18:52:00,71.0,68.0,29.71,NW,312,7.0,16.0,89,-99.99,,,-99.99,,2013-05-03 22:52:00,
2013-05-03 19:02:00,72.0,69.0,29.71,NW,309,8.0,13.0,89,-99.99,,,-99.99,,2013-05-03 23:02:00,
2013-05-03 19:11:00,72.0,69.0,29.71,NW,309,8.0,13.0,89,-99.99,,,-99.99,,2013-05-03 23:11:00,
2013-05-03 19:22:00,74.0,69.0,29.71,NW,313,9.0,13.0,84,-99.99,,,-99.99,,2013-05-03 23:22:00,
2013-05-03 19:32:00,74.0,69.0,29.71,NW,313,9.0,13.0,84,-99.99,,,-99.99,,2013-05-03 23:32:00,
2013-05-03 19:41:00,74.0,67.0,29.73,SSE,155,10.0,16.0,78,-99.99,,,-99.99,,2013-05-03 23:41:00,
2013-05-03 19:52:00,74.0,67.0,29.73,SSE,148,9.0,13.0,78,-99.99,,,-99.99,,2013-05-03 23:52:00,
2013-05-03 20:01:00,74.0,67.0,29.73,SSE,148,9.0,13.0,78,-99.99,,,-99.99,,2013-05-04 00:01:00,
2013-05-03 20:11:00,72.0,66.0,29.73,West,262,8.0,20.0,80,-99.99,,,-99.99,,2013-05-04 00:11:00,
2013-05-03 20:23:00,72.0,66.0,29.73,West,262,8.0,20.0,80,-99.99,,,-99.99,,2013-05-04 00:23:00,
2013-05-03 20:32:00,72.0,66.0,29.73,West,262,8.0,20.0,80,-99.99,,,-99.99,,2013-05-04 00:32:00,
2013-05-03 20:42:00,72.0,66.0,29.73,WSW,239,8.0,16.0,82,-99.99,,,-99.99,,2013-05-04 00:42:00,
2013-05-03 20:52:00,70.0,65.0,29.73,NNW,332,8.0,11.0,86,-99.99,,,-99.99,,2013-05-04 00:52:00,
2013-05-03 21:01:00,70.0,65.0,29.73,NNW,332,8.0,11.0,86,-99.99,,,-99.99,,2013-05-04 01:01:00,
2013-05-03 21:11:00,69.0,65.0,29.73,NW,318,9.0,12.0,87,-99.99,,,-99.99,,2013-05-04 01:11:00,
2013-05-03 21:21:00,69.0,65.0,29.73,NW,318,9.0,12.0,87,-99.99,,,-99.99,,2013-05-04 01:21:00,
2013-05-03 21:32:00,69.0,65.0,29.73,NW,323,8.0,12.0,87,-99.99,,,-99.99,,2013-05-04 01:32:00,
2013-05-03 21:42:00,69.0,65.0,29.73,NW,323,8.0,12.0,87,-99.99,,,-99.99,,2013-05-04 01:42:00,
2013-05-03 21:52:00,69.0,65.0,29.74,NW,316,8.0,12.0,87,-99.99,,,-99.99,,2013-05-04 01:52:00,
2013-05-03 22:02:00,69.0,65.0,29.74,NW,316,8.0,12.0,87,-99.99,,,-99.99,,2013-05-04 02:02:00,
2013-05-03 22:11:00,69.0,65.0,29.74,NW,305,9.0,13.0,87,-99.99,,,-99.99,,2013-05-04 02:11:00,
2013-05-03 22:21:00,69.0,65.0,29.74,NW,305,9.0,13.0,87,-99.99,,,-99.99,,2013-05-04 02:21:00,
2013-05-03 22:32:00,69.0,65.0,29.74,NW,305,9.0,13.0,87,-99.99,,,-99.99,,2013-05-04 02:32:00,
2013-05-03 22:42:00,68.0,65.0,29.74,WNW,300,9.0,12.0,89,-99.99,,,-99.99,,2013-05-04 02:42:00,
2013-05-03 22:52:00,68.0,65.0,29.74,WNW,300,9.0,12.0,89,-99.99,,,-99.99,,2013-05-04 02:52:00,
2013-05-03 23:02:00,68.0,65.0,29.74,WNW,285,8.0,12.0,90,-99.99,,,-99.99,,2013-05-04 03:02:00,
2013-05-03 23:11:00,68.0,65.0,29.74,WNW,285,8.0,12.0,90,-99.99,,,-99.99,,2013-05-04 03:11:00,
2013-05-03 23:22:00,67.0,65.0,29.73,West,280,8.0,13.0,91,-99.99,,,-99.99,,2013-05-04 03:22:00,
2013-05-03 23:33:00,67.0,65.0,29.73,West,275,8.0,12.0,91,-99.99,,,-99.99,,2013-05-04 03:33:00,
2013-05-03 23:43:00,67.0,65.0,29.73,West,275,8.0,12.0,91,-99.99,,,-99.99,,2013-05-04 03:43:00,
2013-05-03 23:53:00,67.0,65.0,29.73,WNW,288,8.0,12.0,91,-99.99,,,-99.99,,2013-05-04 03:53:00,